Location: Carrières
(48.9495°N, 2.0407°E)
Time: 17:42:48
(UTC+00:00)

SR - Pass Details

Date: 26 April 2024
Orbit: 579 x 860 km, 66.7° (Epoch: 22 May)

Event Time Altitude Azimuth Distance (km) Brightness Sun altitude
Exits shadow 03:05:36 - 285° (WNW) 2,933 ? -13.9°
Reaches altitude 10° 03:08:18 10° 305° (NW) 2,243 ? -13.6°
Maximum altitude 03:10:56 14° 336° (NNW) 1,932 ? -13.3°
Drops below altitude 10° 03:13:30 10° 8° (N) 2,148 ? -12.9°
Sets 03:16:53 0° 34° (NE) 3,000 ? -12.5°
